Time,TemperatureF,DewpointF,PressureIn,WindDirection,WindDirectionDegrees,WindSpeedMPH,WindSpeedGustMPH,Humidity,HourlyPrecipIn,Conditions,Clouds,dailyrainin,SoftwareType,DateUTC
2013-10-31 00:01:00,54.0,46.2,29.62,SSE,158,2.5,2.5,75,0.00,,,0.00,VWS V14.01,2013-10-31 04:01:00,
2013-10-31 00:02:00,54.0,46.2,29.62,South,180,2.7,2.7,75,0.00,,,0.00,VWS V14.01,2013-10-31 04:02:00,
2013-10-31 00:03:00,54.0,46.2,29.62,South,180,2.0,2.0,75,0.00,,,0.00,VWS V14.01,2013-10-31 04:03:00,
2013-10-31 00:08:00,54.0,46.2,29.62,SE,135,0.0,0.0,75,0.00,,,0.00,VWS V14.01,2013-10-31 04:08:00,
2013-10-31 00:13:00,54.0,46.2,29.62,SSE,158,1.6,1.6,75,0.00,,,0.00,VWS V14.01,2013-10-31 04:13:00,
2013-10-31 00:18:00,54.0,46.2,29.62,SSE,158,3.1,3.1,75,0.00,,,0.00,VWS V14.01,2013-10-31 04:18:00,
2013-10-31 00:23:00,54.1,46.4,29.62,SSE,158,4.3,4.3,75,0.00,,,0.00,VWS V14.01,2013-10-31 04:23:00,
2013-10-31 00:28:00,54.3,46.9,29.62,SSE,158,3.4,3.4,76,0.00,,,0.00,VWS V14.01,2013-10-31 04:28:00,
2013-10-31 00:33:00,54.5,47.1,29.62,SSE,158,3.8,3.8,76,0.00,,,0.00,VWS V14.01,2013-10-31 04:33:00,
2013-10-31 00:38:00,54.5,47.5,29.59,South,180,2.0,2.0,77,0.00,,,0.00,VWS V14.01,2013-10-31 04:38:00,
2013-10-31 00:43:00,54.7,47.6,29.59,ESE,112,0.0,0.0,77,0.00,,,0.00,VWS V14.01,2013-10-31 04:43:00,
2013-10-31 00:48:00,54.5,47.1,29.59,South,180,1.3,1.3,76,0.00,,,0.00,VWS V14.01,2013-10-31 04:48:00,
2013-10-31 00:53:00,54.5,47.1,29.62,SE,135,3.6,3.6,76,0.00,,,0.00,VWS V14.01,2013-10-31 04:53:00,
2013-10-31 00:58:00,54.5,47.1,29.62,SE,135,2.9,2.9,76,0.00,,,0.00,VWS V14.01,2013-10-31 04:58:00,
2013-10-31 01:04:00,54.5,47.1,29.62,ESE,112,2.2,2.2,76,0.00,,,0.00,VWS V14.01,2013-10-31 05:04:00,
2013-10-31 01:09:00,54.5,47.1,29.62,SE,135,1.1,1.1,76,0.00,,,0.00,VWS V14.01,2013-10-31 05:09:00,
2013-10-31 01:14:00,54.5,47.1,29.62,SE,135,0.0,0.0,76,0.00,,,0.00,VWS V14.01,2013-10-31 05:14:00,
2013-10-31 01:19:00,54.5,47.5,29.62,SSW,202,2.7,2.7,77,0.00,,,0.00,VWS V14.01,2013-10-31 05:19:00,
2013-10-31 01:24:00,54.5,47.8,29.59,SSW,202,2.9,2.9,78,0.00,,,0.00,VWS V14.01,2013-10-31 05:24:00,
2013-10-31 01:29:00,54.7,48.0,29.59,South,180,3.6,3.6,78,0.00,,,0.00,VWS V14.01,2013-10-31 05:29:00,
2013-10-31 01:34:00,54.7,48.0,29.59,SSE,158,2.7,2.7,78,0.00,,,0.00,VWS V14.01,2013-10-31 05:34:00,
2013-10-31 01:39:00,54.7,48.0,29.62,SSE,158,1.1,1.1,78,0.00,,,0.00,VWS V14.01,2013-10-31 05:39:00,
2013-10-31 01:44:00,54.7,48.0,29.62,SSE,158,3.1,3.1,78,0.00,,,0.00,VWS V14.01,2013-10-31 05:44:00,
2013-10-31 01:49:00,54.7,48.0,29.62,SE,135,0.0,0.0,78,0.00,,,0.00,VWS V14.01,2013-10-31 05:49:00,
2013-10-31 01:54:00,54.7,48.3,29.62,East,90,0.0,0.0,79,0.00,,,0.00,VWS V14.01,2013-10-31 05:54:00,
2013-10-31 01:59:00,54.7,48.3,29.62,ESE,112,0.0,0.0,79,0.00,,,0.00,VWS V14.01,2013-10-31 05:59:00,
2013-10-31 02:04:00,54.7,48.3,29.62,SE,135,0.0,0.0,79,0.00,,,0.00,VWS V14.01,2013-10-31 06:04:00,
2013-10-31 02:09:00,54.7,48.3,29.62,SSE,158,2.0,2.0,79,0.00,,,0.00,VWS V14.01,2013-10-31 06:09:00,
2013-10-31 02:14:00,54.7,48.3,29.62,SSE,158,2.0,2.0,79,0.00,,,0.00,VWS V14.01,2013-10-31 06:14:00,
2013-10-31 02:19:00,54.7,48.3,29.62,SE,135,2.0,2.0,79,0.00,,,0.00,VWS V14.01,2013-10-31 06:19:00,
2013-10-31 02:25:00,54.7,48.3,29.62,SSE,158,1.1,1.1,79,0.00,,,0.00,VWS V14.01,2013-10-31 06:25:00,
2013-10-31 02:30:00,54.7,48.3,29.62,South,180,2.0,2.0,79,0.00,,,0.00,VWS V14.01,2013-10-31 06:30:00,
2013-10-31 02:35:00,54.9,48.8,29.62,SE,135,2.7,2.7,80,0.00,,,0.00,VWS V14.01,2013-10-31 06:35:00,
2013-10-31 02:40:00,54.7,48.3,29.62,SSE,158,3.4,3.4,79,0.00,,,0.00,VWS V14.01,2013-10-31 06:40:00,
2013-10-31 02:45:00,54.7,48.3,29.62,ENE,68,1.6,1.6,79,0.00,,,0.00,VWS V14.01,2013-10-31 06:45:00,
2013-10-31 02:50:00,54.7,48.3,29.62,ENE,68,0.0,0.0,79,0.00,,,0.00,VWS V14.01,2013-10-31 06:50:00,
2013-10-31 02:55:00,54.7,48.6,29.62,ENE,68,1.6,1.6,80,0.00,,,0.00,VWS V14.01,2013-10-31 06:55:00,
2013-10-31 03:00:00,54.7,48.6,29.62,East,90,0.0,0.0,80,0.00,,,0.00,VWS V14.01,2013-10-31 07:00:00,
2013-10-31 03:05:00,54.7,48.6,29.62,SE,135,1.1,1.1,80,0.00,,,0.00,VWS V14.01,2013-10-31 07:05:00,
2013-10-31 03:10:00,54.7,48.6,29.62,ESE,112,2.2,2.2,80,0.00,,,0.00,VWS V14.01,2013-10-31 07:10:00,
2013-10-31 03:15:00,54.7,48.6,29.62,ESE,112,2.7,2.7,80,0.00,,,0.00,VWS V14.01,2013-10-31 07:15:00,
2013-10-31 03:21:00,54.7,48.6,29.62,SSW,202,1.6,1.6,80,0.00,,,0.00,VWS V14.01,2013-10-31 07:21:00,
2013-10-31 03:26:00,54.7,48.6,29.59,ESE,112,2.2,2.2,80,0.00,,,0.00,VWS V14.01,2013-10-31 07:26:00,
2013-10-31 03:31:00,54.7,48.6,29.59,East,90,0.9,0.9,80,0.00,,,0.00,VWS V14.01,2013-10-31 07:31:00,
2013-10-31 03:36:00,54.7,48.6,29.59,NE,45,0.0,0.0,80,0.00,,,0.00,VWS V14.01,2013-10-31 07:36:00,
2013-10-31 03:41:00,54.7,48.6,29.59,East,90,1.6,1.6,80,0.00,,,0.00,VWS V14.01,2013-10-31 07:41:00,
2013-10-31 03:46:00,54.7,48.6,29.59,SE,135,2.5,2.5,80,0.00,,,0.00,VWS V14.01,2013-10-31 07:46:00,
2013-10-31 03:51:00,54.7,48.6,29.59,ESE,112,1.3,1.3,80,0.00,,,0.00,VWS V14.01,2013-10-31 07:51:00,
2013-10-31 03:56:00,54.7,49.0,29.59,ENE,68,0.0,0.0,81,0.00,,,0.00,VWS V14.01,2013-10-31 07:56:00,
2013-10-31 04:01:00,54.7,48.6,29.59,ENE,68,2.0,2.0,80,0.00,,,0.00,VWS V14.01,2013-10-31 08:01:00,
2013-10-31 04:06:00,54.7,49.0,29.59,ENE,68,2.2,2.2,81,0.00,,,0.00,VWS V14.01,2013-10-31 08:06:00,
2013-10-31 04:11:00,54.7,49.0,29.56,ENE,68,0.0,0.0,81,0.00,,,0.00,VWS V14.01,2013-10-31 08:11:00,
2013-10-31 04:16:00,54.7,49.0,29.56,SSW,202,2.0,2.0,81,0.00,,,0.00,VWS V14.01,2013-10-31 08:16:00,
2013-10-31 04:22:00,54.7,49.0,29.56,ENE,68,3.1,3.1,81,0.00,,,0.00,VWS V14.01,2013-10-31 08:22:00,
2013-10-31 04:27:00,54.7,49.0,29.56,SSW,202,0.0,0.0,81,0.00,,,0.00,VWS V14.01,2013-10-31 08:27:00,
2013-10-31 04:32:00,54.7,49.0,29.56,East,90,0.0,0.0,81,0.00,,,0.00,VWS V14.01,2013-10-31 08:32:00,
2013-10-31 04:37:00,54.7,49.0,29.56,ESE,112,0.0,0.0,81,0.00,,,0.00,VWS V14.01,2013-10-31 08:37:00,
2013-10-31 04:42:00,54.7,49.3,29.56,ENE,68,1.1,1.1,82,0.00,,,0.00,VWS V14.01,2013-10-31 08:42:00,
2013-10-31 04:47:00,54.7,49.3,29.56,NNE,22,1.6,1.6,82,0.00,,,0.00,VWS V14.01,2013-10-31 08:47:00,
2013-10-31 04:52:00,54.7,49.0,29.56,NNE,22,0.0,0.0,81,0.00,,,0.00,VWS V14.01,2013-10-31 08:52:00,
2013-10-31 04:57:00,54.7,49.3,29.56,East,90,0.0,0.0,82,0.00,,,0.00,VWS V14.01,2013-10-31 08:57:00,
2013-10-31 05:02:00,54.7,49.3,29.56,ENE,68,0.0,0.0,82,0.00,,,0.00,VWS V14.01,2013-10-31 09:02:00,
2013-10-31 05:07:00,54.7,49.3,29.56,NE,45,0.0,0.0,82,0.00,,,0.00,VWS V14.01,2013-10-31 09:07:00,
2013-10-31 05:12:00,54.7,49.3,29.56,ENE,68,0.0,0.0,82,0.00,,,0.00,VWS V14.01,2013-10-31 09:12:00,
2013-10-31 05:17:00,54.7,49.3,29.56,SE,135,2.9,2.9,82,0.00,,,0.00,VWS V14.01,2013-10-31 09:17:00,
2013-10-31 05:22:00,54.7,49.3,29.53,NE,45,0.0,0.0,82,0.00,,,0.00,VWS V14.01,2013-10-31 09:22:00,
2013-10-31 05:28:00,54.7,49.3,29.53,NW,315,0.0,0.0,82,0.00,,,0.00,VWS V14.01,2013-10-31 09:28:00,
2013-10-31 05:33:00,54.7,49.3,29.53,SSW,202,0.0,0.0,82,0.00,,,0.00,VWS V14.01,2013-10-31 09:33:00,
2013-10-31 05:38:00,54.7,49.3,29.53,ESE,112,2.9,2.9,82,0.00,,,0.00,VWS V14.01,2013-10-31 09:38:00,
2013-10-31 05:43:00,54.7,49.3,29.53,SE,135,1.1,1.1,82,0.00,,,0.00,VWS V14.01,2013-10-31 09:43:00,
2013-10-31 05:48:00,54.7,49.6,29.53,SE,135,2.7,2.7,83,0.00,,,0.00,VWS V14.01,2013-10-31 09:48:00,
2013-10-31 05:53:00,54.9,49.8,29.56,NE,45,1.1,1.1,83,0.00,,,0.00,VWS V14.01,2013-10-31 09:53:00,
2013-10-31 05:58:00,55.0,50.0,29.56,NE,45,2.5,2.5,83,0.00,,,0.00,VWS V14.01,2013-10-31 09:58:00,
2013-10-31 06:03:00,55.2,50.5,29.56,NE,45,1.6,1.6,84,0.00,,,0.00,VWS V14.01,2013-10-31 10:03:00,
2013-10-31 06:08:00,55.2,50.5,29.56,ESE,112,2.7,2.7,84,0.00,,,0.00,VWS V14.01,2013-10-31 10:08:00,
2013-10-31 06:13:00,55.2,50.5,29.56,SSE,158,2.9,2.9,84,0.00,,,0.00,VWS V14.01,2013-10-31 10:13:00,
2013-10-31 06:18:00,55.4,50.7,29.56,SSW,202,2.7,2.7,84,0.00,,,0.00,VWS V14.01,2013-10-31 10:18:00,
2013-10-31 06:23:00,55.4,50.7,29.53,South,180,2.9,2.9,84,0.00,,,0.00,VWS V14.01,2013-10-31 10:23:00,
2013-10-31 06:28:00,55.6,51.2,29.53,SSW,202,3.1,3.1,85,0.00,,,0.00,VWS V14.01,2013-10-31 10:28:00,
2013-10-31 06:34:00,55.6,51.2,29.53,SSW,202,1.3,1.3,85,0.00,,,0.00,VWS V14.01,2013-10-31 10:34:00,
2013-10-31 06:39:00,55.8,51.3,29.56,SSW,202,2.7,2.7,85,0.00,,,0.00,VWS V14.01,2013-10-31 10:39:00,
2013-10-31 06:44:00,55.8,51.3,29.56,South,180,2.7,2.7,85,0.00,,,0.00,VWS V14.01,2013-10-31 10:44:00,
2013-10-31 06:49:00,55.8,51.3,29.56,South,180,5.6,5.6,85,0.00,,,0.00,VWS V14.01,2013-10-31 10:49:00,
2013-10-31 06:54:00,55.8,51.3,29.56,WNW,292,1.3,1.3,85,0.00,,,0.00,VWS V14.01,2013-10-31 10:54:00,
2013-10-31 06:59:00,55.9,51.8,29.56,WSW,248,2.9,2.9,86,0.00,,,0.00,VWS V14.01,2013-10-31 10:59:00,
2013-10-31 07:04:00,55.9,51.5,29.56,SSW,202,3.1,3.1,85,0.00,,,0.00,VWS V14.01,2013-10-31 11:04:00,
2013-10-31 07:09:00,55.9,51.5,29.56,South,180,2.2,2.2,85,0.00,,,0.00,VWS V14.01,2013-10-31 11:09:00,
2013-10-31 07:14:00,55.9,51.5,29.56,SSW,202,3.1,3.1,85,0.00,,,0.00,VWS V14.01,2013-10-31 11:14:00,
2013-10-31 07:19:00,55.9,51.5,29.56,SSW,202,2.5,2.5,85,0.00,,,0.00,VWS V14.01,2013-10-31 11:19:00,
2013-10-31 07:24:00,55.9,51.5,29.56,WSW,248,2.7,2.7,85,0.00,,,0.00,VWS V14.01,2013-10-31 11:24:00,
2013-10-31 07:29:00,55.9,51.5,29.56,WSW,248,2.9,2.9,85,0.00,,,0.00,VWS V14.01,2013-10-31 11:29:00,
2013-10-31 07:34:00,55.9,51.5,29.56,South,180,3.4,3.4,85,0.00,,,0.00,VWS V14.01,2013-10-31 11:34:00,
2013-10-31 07:39:00,55.9,51.5,29.56,SSW,202,3.6,3.6,85,0.00,,,0.00,VWS V14.01,2013-10-31 11:39:00,
2013-10-31 07:44:00,56.1,51.7,29.56,South,180,3.8,3.8,85,0.00,,,0.00,VWS V14.01,2013-10-31 11:44:00,
2013-10-31 07:49:00,56.1,51.7,29.56,SSE,158,2.2,2.2,85,0.00,,,0.00,VWS V14.01,2013-10-31 11:49:00,
2013-10-31 07:54:00,56.1,52.0,29.56,SSW,202,2.7,2.7,86,0.00,,,0.00,VWS V14.01,2013-10-31 11:54:00,
2013-10-31 07:59:00,56.1,52.0,29.56,SSW,202,4.0,4.0,86,0.00,,,0.00,VWS V14.01,2013-10-31 11:59:00,
2013-10-31 08:04:00,56.1,52.0,29.56,West,270,4.0,4.0,86,0.00,,,0.00,VWS V14.01,2013-10-31 12:04:00,
2013-10-31 08:09:00,56.1,52.0,29.56,SSW,202,3.8,3.8,86,0.00,,,0.00,VWS V14.01,2013-10-31 12:09:00,
2013-10-31 08:14:00,56.1,52.0,29.56,NW,315,2.9,2.9,86,0.00,,,0.00,VWS V14.01,2013-10-31 12:14:00,
2013-10-31 08:19:00,56.3,52.2,29.56,West,270,0.0,0.0,86,0.00,,,0.00,VWS V14.01,2013-10-31 12:19:00,
2013-10-31 08:24:00,56.3,52.5,29.53,SSE,158,3.8,3.8,87,0.00,,,0.00,VWS V14.01,2013-10-31 12:24:00,
2013-10-31 08:29:00,56.3,52.5,29.53,SSE,158,2.0,2.0,87,0.00,,,0.00,VWS V14.01,2013-10-31 12:29:00,
2013-10-31 08:34:00,56.3,52.5,29.53,SW,225,4.0,4.0,87,0.00,,,0.00,VWS V14.01,2013-10-31 12:34:00,
2013-10-31 08:39:00,56.3,52.8,29.56,ENE,68,2.0,2.0,88,0.00,,,0.00,VWS V14.01,2013-10-31 12:39:00,
2013-10-31 08:44:00,56.3,52.8,29.56,SSE,158,2.5,2.5,88,0.00,,,0.00,VWS V14.01,2013-10-31 12:44:00,
2013-10-31 08:49:00,56.3,52.8,29.56,SSW,202,3.4,3.4,88,0.00,,,0.00,VWS V14.01,2013-10-31 12:49:00,
2013-10-31 08:54:00,56.3,52.8,29.56,SSE,158,2.7,2.7,88,0.00,,,0.00,VWS V14.01,2013-10-31 12:54:00,
2013-10-31 08:59:00,56.3,52.8,29.56,West,270,1.6,1.6,88,0.00,,,0.00,VWS V14.01,2013-10-31 12:59:00,
2013-10-31 09:04:00,56.3,52.8,29.56,NNE,22,2.7,2.7,88,0.00,,,0.00,VWS V14.01,2013-10-31 13:04:00,
2013-10-31 09:09:00,56.3,53.1,29.53,SW,225,3.6,3.6,89,0.00,,,0.00,VWS V14.01,2013-10-31 13:09:00,
2013-10-31 09:14:00,56.3,53.1,29.53,SW,225,3.4,3.4,89,0.00,,,0.00,VWS V14.01,2013-10-31 13:14:00,
2013-10-31 09:19:00,56.3,53.1,29.53,NNW,338,0.9,0.9,89,0.00,,,0.00,VWS V14.01,2013-10-31 13:19:00,
2013-10-31 09:24:00,56.3,53.1,29.56,NW,315,0.0,0.0,89,0.00,,,0.00,VWS V14.01,2013-10-31 13:24:00,
2013-10-31 09:29:00,56.3,53.1,29.56,West,270,6.0,6.0,89,0.00,,,0.00,VWS V14.01,2013-10-31 13:29:00,
2013-10-31 09:34:00,56.3,53.1,29.56,WNW,292,2.2,2.2,89,0.00,,,0.00,VWS V14.01,2013-10-31 13:34:00,
2013-10-31 09:39:00,56.3,53.1,29.56,SSW,202,3.6,3.6,89,0.00,,,0.00,VWS V14.01,2013-10-31 13:39:00,
2013-10-31 09:44:00,56.3,53.1,29.56,West,270,7.4,7.4,89,0.00,,,0.00,VWS V14.01,2013-10-31 13:44:00,
2013-10-31 09:50:00,56.3,53.4,29.56,SSW,202,4.3,4.3,90,0.00,,,0.00,VWS V14.01,2013-10-31 13:50:00,
2013-10-31 09:55:00,56.3,53.4,29.53,WSW,248,3.6,3.6,90,0.00,,,0.00,VWS V14.01,2013-10-31 13:55:00,
2013-10-31 10:00:00,56.3,53.4,29.53,SSW,202,1.6,1.6,90,0.00,,,0.00,VWS V14.01,2013-10-31 14:00:00,
2013-10-31 10:05:00,56.3,53.4,29.53,West,270,3.4,3.4,90,0.00,,,0.00,VWS V14.01,2013-10-31 14:05:00,
2013-10-31 10:10:00,56.3,53.4,29.53,WSW,248,3.4,3.4,90,0.00,,,0.00,VWS V14.01,2013-10-31 14:10:00,
2013-10-31 10:15:00,56.3,53.4,29.53,SW,225,2.0,2.0,90,0.00,,,0.00,VWS V14.01,2013-10-31 14:15:00,
2013-10-31 10:20:00,56.3,53.4,29.53,SSW,202,5.4,5.4,90,0.00,,,0.00,VWS V14.01,2013-10-31 14:20:00,
2013-10-31 10:25:00,56.3,53.7,29.50,South,180,0.9,0.9,91,0.00,,,0.00,VWS V14.01,2013-10-31 14:25:00,
2013-10-31 10:30:00,56.3,53.7,29.50,WSW,248,2.2,2.2,91,0.00,,,0.00,VWS V14.01,2013-10-31 14:30:00,
2013-10-31 10:35:00,56.3,53.7,29.50,WSW,248,1.3,1.3,91,0.00,,,0.00,VWS V14.01,2013-10-31 14:35:00,
2013-10-31 10:40:00,56.3,53.7,29.50,SSE,158,2.0,2.0,91,0.00,,,0.00,VWS V14.01,2013-10-31 14:40:00,
2013-10-31 10:45:00,56.5,53.9,29.50,NW,315,0.0,0.0,91,0.00,,,0.00,VWS V14.01,2013-10-31 14:45:00,
2013-10-31 10:50:00,56.5,54.2,29.50,WSW,248,0.0,0.0,92,0.00,,,0.00,VWS V14.01,2013-10-31 14:50:00,
2013-10-31 10:55:00,56.7,54.4,29.47,WSW,248,1.6,1.6,92,0.00,,,0.00,VWS V14.01,2013-10-31 14:55:00,
2013-10-31 11:00:00,56.7,54.4,29.47,WSW,248,2.2,2.2,92,0.00,,,0.00,VWS V14.01,2013-10-31 15:00:00,
2013-10-31 11:05:00,56.7,54.4,29.47,WSW,248,1.3,1.3,92,0.00,,,0.00,VWS V14.01,2013-10-31 15:05:00,
2013-10-31 11:11:00,56.7,54.4,29.50,SSW,202,3.6,3.6,92,0.00,,,0.00,VWS V14.01,2013-10-31 15:11:00,
2013-10-31 11:16:00,56.8,54.5,29.50,WSW,248,0.0,0.0,92,0.00,,,0.00,VWS V14.01,2013-10-31 15:16:00,
2013-10-31 11:21:00,56.8,54.5,29.50,SW,225,1.6,1.6,92,0.00,,,0.00,VWS V14.01,2013-10-31 15:21:00,
2013-10-31 11:26:00,56.8,54.5,29.47,WSW,248,2.2,2.2,92,0.00,,,0.00,VWS V14.01,2013-10-31 15:26:00,
2013-10-31 11:31:00,56.8,54.5,29.47,WSW,248,0.9,0.9,92,0.00,,,0.00,VWS V14.01,2013-10-31 15:31:00,
2013-10-31 11:36:00,56.8,54.5,29.47,South,180,2.5,2.5,92,0.00,,,0.00,VWS V14.01,2013-10-31 15:36:00,
2013-10-31 11:41:00,57.0,54.7,29.50,WSW,248,3.1,3.1,92,0.00,,,0.00,VWS V14.01,2013-10-31 15:41:00,
2013-10-31 11:46:00,57.0,54.7,29.50,SE,135,0.9,0.9,92,0.00,,,0.00,VWS V14.01,2013-10-31 15:46:00,
2013-10-31 11:51:00,57.0,55.0,29.50,South,180,1.1,1.1,93,0.00,,,0.00,VWS V14.01,2013-10-31 15:51:00,
2013-10-31 11:56:00,57.2,54.9,29.50,SSW,202,2.9,2.9,92,0.00,,,0.00,VWS V14.01,2013-10-31 15:56:00,
2013-10-31 12:01:00,57.2,54.9,29.50,South,180,2.5,2.5,92,0.00,,,0.00,VWS V14.01,2013-10-31 16:01:00,
2013-10-31 12:06:00,57.4,55.1,29.50,West,270,2.9,2.9,92,0.00,,,0.00,VWS V14.01,2013-10-31 16:06:00,
2013-10-31 12:11:00,57.4,55.1,29.47,SSW,202,3.6,3.6,92,0.00,,,0.00,VWS V14.01,2013-10-31 16:11:00,
2013-10-31 12:16:00,57.4,55.4,29.47,NW,315,1.3,1.3,93,0.00,,,0.00,VWS V14.01,2013-10-31 16:16:00,
2013-10-31 12:21:00,57.6,55.3,29.47,WNW,292,0.0,0.0,92,0.00,,,0.00,VWS V14.01,2013-10-31 16:21:00,
2013-10-31 12:27:00,57.6,55.3,29.47,West,270,0.0,0.0,92,0.00,,,0.00,VWS V14.01,2013-10-31 16:27:00,
2013-10-31 12:32:00,57.6,55.3,29.47,SSW,202,0.0,0.0,92,0.00,,,0.00,VWS V14.01,2013-10-31 16:32:00,
2013-10-31 12:37:00,57.7,55.7,29.47,WNW,292,2.5,2.5,93,0.00,,,0.00,VWS V14.01,2013-10-31 16:37:00,
2013-10-31 12:42:00,57.9,55.6,29.47,SW,225,0.9,0.9,92,0.00,,,0.00,VWS V14.01,2013-10-31 16:42:00,
2013-10-31 12:47:00,57.9,55.6,29.47,WSW,248,3.4,3.4,92,0.00,,,0.00,VWS V14.01,2013-10-31 16:47:00,
2013-10-31 12:52:00,58.1,55.8,29.44,SSE,158,2.2,2.2,92,0.00,,,0.00,VWS V14.01,2013-10-31 16:52:00,
2013-10-31 12:57:00,58.1,55.8,29.44,SSW,202,0.0,0.0,92,0.00,,,0.00,VWS V14.01,2013-10-31 16:57:00,
2013-10-31 13:02:00,58.1,55.8,29.44,SSW,202,2.7,2.7,92,0.00,,,0.00,VWS V14.01,2013-10-31 17:02:00,
2013-10-31 13:07:00,58.1,55.8,29.44,SSE,158,6.5,6.5,92,0.00,,,0.00,VWS V14.01,2013-10-31 17:07:00,
2013-10-31 13:12:00,58.1,55.8,29.44,SSW,202,2.5,2.5,92,0.00,,,0.00,VWS V14.01,2013-10-31 17:12:00,
2013-10-31 13:17:00,58.3,56.0,29.44,SSE,158,2.0,2.0,92,0.00,,,0.00,VWS V14.01,2013-10-31 17:17:00,
2013-10-31 13:22:00,58.3,56.0,29.44,ESE,112,2.7,2.7,92,0.00,,,0.00,VWS V14.01,2013-10-31 17:22:00,
2013-10-31 13:27:00,58.3,56.0,29.44,NNW,338,1.3,1.3,92,0.00,,,0.00,VWS V14.01,2013-10-31 17:27:00,
2013-10-31 13:32:00,58.3,56.0,29.44,WSW,248,4.7,4.7,92,0.00,,,0.00,VWS V14.01,2013-10-31 17:32:00,
2013-10-31 13:37:00,58.3,56.0,29.44,WNW,292,0.0,0.0,92,0.00,,,0.00,VWS V14.01,2013-10-31 17:37:00,
2013-10-31 13:42:00,58.3,56.0,29.44,WSW,248,1.1,1.1,92,0.00,,,0.00,VWS V14.01,2013-10-31 17:42:00,
2013-10-31 13:47:00,58.3,56.0,29.44,WSW,248,2.7,2.7,92,0.00,,,0.00,VWS V14.01,2013-10-31 17:47:00,
2013-10-31 13:53:00,58.3,56.0,29.44,WSW,248,3.6,3.6,92,0.00,,,0.00,VWS V14.01,2013-10-31 17:53:00,
2013-10-31 13:58:00,58.3,56.0,29.44,West,270,3.1,3.1,92,0.00,,,0.00,VWS V14.01,2013-10-31 17:58:00,
2013-10-31 14:03:00,58.3,56.0,29.44,WNW,292,3.6,3.6,92,0.00,,,0.00,VWS V14.01,2013-10-31 18:03:00,
2013-10-31 14:08:00,58.3,56.0,29.41,WNW,292,5.6,5.6,92,0.00,,,0.00,VWS V14.01,2013-10-31 18:08:00,
2013-10-31 14:13:00,58.3,56.0,29.41,SE,135,3.4,3.4,92,0.00,,,0.00,VWS V14.01,2013-10-31 18:13:00,
2013-10-31 14:18:00,58.3,56.0,29.41,West,270,6.5,6.5,92,0.00,,,0.00,VWS V14.01,2013-10-31 18:18:00,
2013-10-31 14:23:00,58.3,56.0,29.38,WSW,248,5.8,5.8,92,0.00,,,0.00,VWS V14.01,2013-10-31 18:23:00,
2013-10-31 14:28:00,58.3,56.0,29.38,South,180,4.3,4.3,92,0.00,,,0.00,VWS V14.01,2013-10-31 18:28:00,
2013-10-31 14:33:00,58.5,56.2,29.38,SSW,202,5.8,5.8,92,0.00,,,0.00,VWS V14.01,2013-10-31 18:33:00,
2013-10-31 14:38:00,58.5,56.2,29.38,SSW,202,6.5,6.5,92,0.00,,,0.00,VWS V14.01,2013-10-31 18:38:00,
2013-10-31 14:43:00,58.5,56.5,29.38,SSW,202,6.9,6.9,93,0.00,,,0.00,VWS V14.01,2013-10-31 18:43:00,
2013-10-31 14:48:00,58.5,56.2,29.38,SSW,202,2.7,2.7,92,0.00,,,0.00,VWS V14.01,2013-10-31 18:48:00,
2013-10-31 14:54:00,58.5,56.5,29.38,SSE,158,8.1,8.1,93,0.00,,,0.00,VWS V14.01,2013-10-31 18:54:00,
2013-10-31 14:59:00,58.6,56.6,29.38,SSW,202,10.7,10.7,93,0.00,,,0.00,VWS V14.01,2013-10-31 18:59:00,
2013-10-31 15:04:00,58.6,56.6,29.38,South,180,9.8,9.8,93,0.00,,,0.00,VWS V14.01,2013-10-31 19:04:00,
2013-10-31 15:09:00,58.6,56.6,29.38,SSW,202,4.9,4.9,93,0.00,,,0.00,VWS V14.01,2013-10-31 19:09:00,
2013-10-31 15:14:00,58.8,56.8,29.38,South,180,5.6,5.6,93,0.00,,,0.00,VWS V14.01,2013-10-31 19:14:00,
2013-10-31 15:19:00,58.8,56.8,29.38,South,180,3.8,3.8,93,0.00,,,0.00,VWS V14.01,2013-10-31 19:19:00,
2013-10-31 15:24:00,59.0,56.7,29.38,NE,45,1.6,1.6,92,0.00,,,0.00,VWS V14.01,2013-10-31 19:24:00,
2013-10-31 15:29:00,59.0,56.7,29.38,SE,135,1.6,1.6,92,0.00,,,0.00,VWS V14.01,2013-10-31 19:29:00,
2013-10-31 15:34:00,59.0,56.7,29.38,SE,135,1.6,1.6,92,0.00,,,0.00,VWS V14.01,2013-10-31 19:34:00,
2013-10-31 15:39:00,59.2,56.9,29.41,West,270,2.2,2.2,92,0.00,,,0.00,VWS V14.01,2013-10-31 19:39:00,
2013-10-31 15:44:00,59.2,56.9,29.41,West,270,2.5,2.5,92,0.00,,,0.00,VWS V14.01,2013-10-31 19:44:00,
2013-10-31 15:49:00,59.2,56.9,29.41,SSW,202,2.7,2.7,92,0.00,,,0.00,VWS V14.01,2013-10-31 19:49:00,
2013-10-31 15:54:00,59.2,56.9,29.38,South,180,2.2,2.2,92,0.00,,,0.00,VWS V14.01,2013-10-31 19:54:00,
2013-10-31 15:59:00,59.2,56.9,29.38,South,180,2.9,2.9,92,0.00,,,0.00,VWS V14.01,2013-10-31 19:59:00,
2013-10-31 16:04:00,59.2,56.9,29.38,SSW,202,3.1,3.1,92,0.00,,,0.00,VWS V14.01,2013-10-31 20:04:00,
2013-10-31 16:09:00,59.2,56.9,29.35,South,180,3.4,3.4,92,0.00,,,0.00,VWS V14.01,2013-10-31 20:09:00,
2013-10-31 16:14:00,59.2,56.9,29.35,SW,225,1.3,1.3,92,0.00,,,0.00,VWS V14.01,2013-10-31 20:14:00,
2013-10-31 16:19:00,59.2,56.9,29.35,North,0,1.3,1.3,92,0.00,,,0.00,VWS V14.01,2013-10-31 20:19:00,
2013-10-31 16:24:00,59.2,56.9,29.35,West,270,2.9,2.9,92,0.00,,,0.00,VWS V14.01,2013-10-31 20:24:00,
2013-10-31 16:29:00,59.2,56.9,29.35,NW,315,2.0,2.0,92,0.00,,,0.00,VWS V14.01,2013-10-31 20:29:00,
2013-10-31 16:34:00,59.2,56.9,29.35,North,0,1.6,1.6,92,0.00,,,0.00,VWS V14.01,2013-10-31 20:34:00,
2013-10-31 16:40:00,59.2,56.6,29.35,East,90,3.1,3.1,91,0.00,,,0.00,VWS V14.01,2013-10-31 20:40:00,
2013-10-31 16:45:00,59.0,56.4,29.35,NW,315,3.4,3.4,91,0.00,,,0.00,VWS V14.01,2013-10-31 20:45:00,
2013-10-31 16:50:00,59.0,56.7,29.35,WSW,248,3.8,3.8,92,0.00,,,0.00,VWS V14.01,2013-10-31 20:50:00,
2013-10-31 16:55:00,59.2,56.9,29.38,SSE,158,2.5,2.5,92,0.00,,,0.00,VWS V14.01,2013-10-31 20:55:00,
2013-10-31 17:00:00,59.0,56.7,29.38,South,180,2.5,2.5,92,0.00,,,0.00,VWS V14.01,2013-10-31 21:00:00,
2013-10-31 17:05:00,59.0,56.7,29.38,SSE,158,2.7,2.7,92,0.00,,,0.00,VWS V14.01,2013-10-31 21:05:00,
2013-10-31 17:10:00,59.0,57.0,29.35,SE,135,1.6,1.6,93,0.00,,,0.00,VWS V14.01,2013-10-31 21:10:00,
2013-10-31 17:15:00,59.0,57.0,29.35,ESE,112,0.0,0.0,93,0.00,,,0.00,VWS V14.01,2013-10-31 21:15:00,
2013-10-31 17:20:00,58.8,56.8,29.35,SE,135,2.5,2.5,93,0.00,,,0.00,VWS V14.01,2013-10-31 21:20:00,
2013-10-31 17:25:00,58.8,56.8,29.35,SE,135,2.9,2.9,93,0.00,,,0.00,VWS V14.01,2013-10-31 21:25:00,
2013-10-31 17:30:00,58.8,56.8,29.35,South,180,0.0,0.0,93,0.00,,,0.00,VWS V14.01,2013-10-31 21:30:00,
2013-10-31 17:35:00,58.8,57.1,29.35,SSE,158,3.1,3.1,94,0.00,,,0.00,VWS V14.01,2013-10-31 21:35:00,
2013-10-31 17:40:00,58.8,57.1,29.32,WNW,292,0.9,0.9,94,0.00,,,0.00,VWS V14.01,2013-10-31 21:40:00,
2013-10-31 17:45:00,58.8,57.1,29.32,SSW,202,0.0,0.0,94,0.00,,,0.00,VWS V14.01,2013-10-31 21:45:00,
2013-10-31 17:50:00,58.8,57.1,29.32,South,180,2.7,2.7,94,0.00,,,0.00,VWS V14.01,2013-10-31 21:50:00,
2013-10-31 17:56:00,58.8,57.1,29.32,South,180,3.4,3.4,94,0.00,,,0.00,VWS V14.01,2013-10-31 21:56:00,
2013-10-31 18:01:00,58.8,57.1,29.32,ESE,112,1.6,1.6,94,0.00,,,0.00,VWS V14.01,2013-10-31 22:01:00,
2013-10-31 18:06:00,58.8,57.1,29.32,NNE,22,2.9,2.9,94,0.00,,,0.00,VWS V14.01,2013-10-31 22:06:00,
2013-10-31 18:11:00,58.6,56.9,29.32,NNE,22,2.9,2.9,94,0.00,,,0.00,VWS V14.01,2013-10-31 22:11:00,
2013-10-31 18:16:00,58.6,56.9,29.32,WSW,248,1.1,1.1,94,0.00,,,0.00,VWS V14.01,2013-10-31 22:16:00,
2013-10-31 18:21:00,58.6,56.9,29.32,SE,135,0.9,0.9,94,0.00,,,0.00,VWS V14.01,2013-10-31 22:21:00,
2013-10-31 18:26:00,58.6,56.9,29.32,WSW,248,0.9,0.9,94,0.00,,,0.00,VWS V14.01,2013-10-31 22:26:00,
2013-10-31 18:31:00,58.6,57.2,29.32,SW,225,2.0,2.0,95,0.00,,,0.00,VWS V14.01,2013-10-31 22:31:00,
2013-10-31 18:36:00,58.6,57.2,29.32,SSW,202,4.3,4.3,95,0.00,,,0.00,VWS V14.01,2013-10-31 22:36:00,
2013-10-31 18:41:00,58.8,57.4,29.32,SSW,202,2.9,2.9,95,0.00,,,0.00,VWS V14.01,2013-10-31 22:41:00,
2013-10-31 18:46:00,58.8,57.4,29.32,South,180,1.3,1.3,95,0.00,,,0.00,VWS V14.01,2013-10-31 22:46:00,
2013-10-31 18:52:00,58.8,57.4,29.32,SSW,202,4.7,4.7,95,0.00,,,0.00,VWS V14.01,2013-10-31 22:52:00,
2013-10-31 18:57:00,58.8,57.4,29.32,SSW,202,3.8,3.8,95,0.00,,,0.00,VWS V14.01,2013-10-31 22:57:00,
2013-10-31 19:02:00,58.8,57.4,29.32,SSW,202,3.4,3.4,95,0.00,,,0.00,VWS V14.01,2013-10-31 23:02:00,
2013-10-31 19:07:00,58.8,57.4,29.32,SSW,202,3.4,3.4,95,0.00,,,0.00,VWS V14.01,2013-10-31 23:07:00,
2013-10-31 19:12:00,58.8,57.4,29.32,South,180,1.1,1.1,95,0.00,,,0.00,VWS V14.01,2013-10-31 23:12:00,
2013-10-31 19:17:00,58.8,57.4,29.32,SSE,158,2.7,2.7,95,0.00,,,0.00,VWS V14.01,2013-10-31 23:17:00,
2013-10-31 19:22:00,58.8,57.7,29.32,South,180,3.6,3.6,96,0.00,,,0.00,VWS V14.01,2013-10-31 23:22:00,
2013-10-31 19:27:00,58.8,57.7,29.32,SSW,202,3.8,3.8,96,0.00,,,0.00,VWS V14.01,2013-10-31 23:27:00,
2013-10-31 19:32:00,58.8,57.7,29.32,WSW,248,0.0,0.0,96,0.00,,,0.00,VWS V14.01,2013-10-31 23:32:00,
2013-10-31 19:37:00,59.0,57.6,29.35,South,180,0.9,0.9,95,0.00,,,0.00,VWS V14.01,2013-10-31 23:37:00,
2013-10-31 19:42:00,59.0,57.9,29.35,WSW,248,0.0,0.0,96,0.00,,,0.00,VWS V14.01,2013-10-31 23:42:00,
2013-10-31 19:47:00,59.0,57.9,29.35,WSW,248,1.6,1.6,96,0.00,,,0.00,VWS V14.01,2013-10-31 23:47:00,
2013-10-31 19:52:00,59.2,58.0,29.32,West,270,1.1,1.1,96,0.00,,,0.00,VWS V14.01,2013-10-31 23:52:00,
2013-10-31 19:57:00,59.2,58.0,29.32,WSW,248,0.9,0.9,96,0.00,,,0.00,VWS V14.01,2013-10-31 23:57:00,
2013-10-31 20:02:00,59.2,58.0,29.32,WSW,248,0.0,0.0,96,0.00,,,0.00,VWS V14.01,2013-11-01 00:02:00,
2013-10-31 20:08:00,59.4,58.2,29.32,SSW,202,3.4,3.4,96,0.00,,,0.00,VWS V14.01,2013-11-01 00:08:00,
2013-10-31 20:13:00,59.4,58.2,29.32,West,270,2.0,2.0,96,0.00,,,0.00,VWS V14.01,2013-11-01 00:13:00,
2013-10-31 20:18:00,59.4,58.2,29.32,SSW,202,5.4,5.4,96,0.00,,,0.00,VWS V14.01,2013-11-01 00:18:00,
2013-10-31 20:23:00,59.7,58.6,29.29,SSW,202,3.8,3.8,96,0.00,,,0.00,VWS V14.01,2013-11-01 00:23:00,
2013-10-31 20:28:00,59.7,58.6,29.29,SW,225,4.3,4.3,96,0.00,,,0.00,VWS V14.01,2013-11-01 00:28:00,
2013-10-31 20:33:00,59.7,58.6,29.29,SSW,202,4.7,4.7,96,0.00,,,0.00,VWS V14.01,2013-11-01 00:33:00,
2013-10-31 20:38:00,59.9,58.8,29.26,SSW,202,4.0,4.0,96,0.00,,,0.00,VWS V14.01,2013-11-01 00:38:00,
2013-10-31 20:43:00,59.9,58.8,29.26,South,180,3.4,3.4,96,0.00,,,0.00,VWS V14.01,2013-11-01 00:43:00,
2013-10-31 20:48:00,59.9,58.8,29.26,South,180,10.3,10.3,96,0.00,,,0.00,VWS V14.01,2013-11-01 00:48:00,
2013-10-31 20:53:00,59.9,58.8,29.26,SSE,158,3.8,3.8,96,0.00,,,0.00,VWS V14.01,2013-11-01 00:53:00,
2013-10-31 20:58:00,59.9,58.8,29.26,SW,225,3.8,3.8,96,0.00,,,0.00,VWS V14.01,2013-11-01 00:58:00,
2013-10-31 21:03:00,59.9,58.8,29.26,SSW,202,7.4,7.4,96,0.00,,,0.00,VWS V14.01,2013-11-01 01:03:00,
2013-10-31 21:08:00,59.9,58.8,29.26,WSW,248,3.6,3.6,96,0.00,,,0.00,VWS V14.01,2013-11-01 01:08:00,
2013-10-31 21:13:00,60.1,58.9,29.26,South,180,4.0,4.0,96,0.00,,,0.00,VWS V14.01,2013-11-01 01:13:00,
2013-10-31 21:18:00,60.1,58.9,29.26,SSW,202,4.9,4.9,96,0.00,,,0.00,VWS V14.01,2013-11-01 01:18:00,
2013-10-31 21:23:00,60.1,58.9,29.26,SSW,202,4.5,4.5,96,0.00,,,0.00,VWS V14.01,2013-11-01 01:23:00,
2013-10-31 21:28:00,60.3,59.1,29.26,SSW,202,3.1,3.1,96,0.00,,,0.00,VWS V14.01,2013-11-01 01:28:00,
2013-10-31 21:33:00,60.3,59.1,29.26,South,180,2.9,2.9,96,0.00,,,0.00,VWS V14.01,2013-11-01 01:33:00,
2013-10-31 21:38:00,60.3,59.1,29.26,SSW,202,7.8,7.8,96,0.00,,,0.00,VWS V14.01,2013-11-01 01:38:00,
2013-10-31 21:43:00,60.4,59.3,29.26,South,180,4.7,4.7,96,0.00,,,0.00,VWS V14.01,2013-11-01 01:43:00,
2013-10-31 21:48:00,60.4,59.3,29.26,South,180,4.0,4.0,96,0.00,,,0.00,VWS V14.01,2013-11-01 01:48:00,
2013-10-31 21:53:00,60.4,59.3,29.23,SSW,202,7.6,7.6,96,0.00,,,0.00,VWS V14.01,2013-11-01 01:53:00,
2013-10-31 21:58:00,60.4,59.3,29.23,SSE,158,6.0,6.0,96,0.00,,,0.00,VWS V14.01,2013-11-01 01:58:00,
2013-10-31 22:04:00,60.4,59.3,29.23,SSW,202,4.9,4.9,96,0.00,,,0.00,VWS V14.01,2013-11-01 02:04:00,
2013-10-31 22:09:00,60.4,59.3,29.20,South,180,4.7,4.7,96,0.00,,,0.00,VWS V14.01,2013-11-01 02:09:00,
2013-10-31 22:14:00,60.4,59.6,29.20,SSW,202,4.9,4.9,97,0.00,,,0.00,VWS V14.01,2013-11-01 02:14:00,
2013-10-31 22:19:00,60.6,59.8,29.20,SSE,158,13.9,13.9,97,0.00,,,0.00,VWS V14.01,2013-11-01 02:19:00,
2013-10-31 22:24:00,60.6,59.8,29.20,South,180,6.3,6.3,97,0.00,,,0.00,VWS V14.01,2013-11-01 02:24:00,
2013-10-31 22:29:00,60.6,59.8,29.20,South,180,11.2,11.2,97,0.00,,,0.00,VWS V14.01,2013-11-01 02:29:00,
2013-10-31 22:34:00,60.8,59.7,29.20,SSW,202,12.1,12.1,96,0.00,,,0.00,VWS V14.01,2013-11-01 02:34:00,
2013-10-31 22:39:00,60.8,59.7,29.20,SSE,158,6.0,6.0,96,0.00,,,0.00,VWS V14.01,2013-11-01 02:39:00,
2013-10-31 22:44:00,60.8,60.0,29.20,SSW,202,5.6,5.6,97,0.00,,,0.00,VWS V14.01,2013-11-01 02:44:00,
2013-10-31 22:49:00,60.8,60.0,29.20,SE,135,5.8,5.8,97,0.00,,,0.00,VWS V14.01,2013-11-01 02:49:00,
2013-10-31 22:54:00,60.8,59.7,29.20,SSW,202,5.8,5.8,96,0.00,,,0.00,VWS V14.01,2013-11-01 02:54:00,
2013-10-31 22:59:00,61.0,60.1,29.20,SSW,202,6.5,6.5,97,0.00,,,0.00,VWS V14.01,2013-11-01 02:59:00,
2013-10-31 23:04:00,61.0,60.1,29.20,SSW,202,6.0,6.0,97,0.00,,,0.00,VWS V14.01,2013-11-01 03:04:00,
2013-10-31 23:09:00,61.0,59.8,29.20,SSW,202,4.7,4.7,96,0.00,,,0.00,VWS V14.01,2013-11-01 03:09:00,
2013-10-31 23:14:00,61.0,59.8,29.20,SSW,202,9.4,9.4,96,0.00,,,0.00,VWS V14.01,2013-11-01 03:14:00,
2013-10-31 23:19:00,61.0,59.8,29.20,SSW,202,15.2,15.2,96,0.00,,,0.00,VWS V14.01,2013-11-01 03:19:00,
2013-10-31 23:24:00,61.0,59.8,29.20,SSW,202,6.5,6.5,96,0.00,,,0.00,VWS V14.01,2013-11-01 03:24:00,
2013-10-31 23:29:00,61.0,60.1,29.20,SSW,202,5.6,5.6,97,0.00,,,0.00,VWS V14.01,2013-11-01 03:29:00,
2013-10-31 23:34:00,61.0,59.8,29.20,SE,135,12.3,12.3,96,0.00,,,0.00,VWS V14.01,2013-11-01 03:34:00,
2013-10-31 23:40:00,61.0,59.8,29.17,WSW,248,7.6,7.6,96,0.00,,,0.00,VWS V14.01,2013-11-01 03:40:00,
2013-10-31 23:45:00,61.0,59.8,29.17,SSW,202,5.4,5.4,96,0.00,,,0.00,VWS V14.01,2013-11-01 03:45:00,
2013-10-31 23:50:00,61.0,59.8,29.17,SSW,202,6.5,6.5,96,0.00,,,0.00,VWS V14.01,2013-11-01 03:50:00,
2013-10-31 23:55:00,61.0,59.8,29.14,SSW,202,3.8,3.8,96,0.00,,,0.00,VWS V14.01,2013-11-01 03:55:00,